Regional Weather Roundup
Issued by NWS

Home | Current Version | Previous Version | Text Only | Print | Product List | Glossary Off
Versions: 1 2 3 4 5 6 7 8 9 10 11 12 13 14 15 16 17 18 19 20 21 22 23 24 25 26 27 28 29 30 31 32 33 34 35 36 37 38 39 40 41 42 43 44 45 46 47 48 49 50

887
ASUS43 KBIS 271410
RWRND

NORTH DAKOTA REGIONAL WEATHER ROUNDUP
NATIONAL WEATHER SERVICE BISMARCK ND
900 AM CDT WED JUL 27 2016

NOTE: "FAIR" INDICATES FEW OR NO CLOUDS BELOW 12,000 FEET WITH NO
SIGNIFICANT WEATHER AND/OR OBSTRUCTIONS TO VISIBILITY.


NDZ001>003-009>011-017-271500-
NORTHWEST NORTH DAKOTA

CITY           SKY/WX    TMP DP  RH WIND       PRES   REMARKS
WILLISTON      MOSUNNY   66  55  67 N6        30.13R
MINOT          PTSUNNY   68  60  75 NE6       30.12R
MINOT AFB      CLOUDY    64  58  81 E3        30.12R
$$

NDZ018>021-031>035-040>046-271500-
SOUTHWEST NORTH DAKOTA

CITY           SKY/WX    TMP DP  RH WIND       PRES   REMARKS
BISMARCK       SUNNY     68  63  84 E5        30.11R
DICKINSON      PTSUNNY   61  59  93 N3        30.13R
GARRISON         N/A     67  63  87 VRB6      30.12R
HETTINGER ARPT CLOUDY    63  60  90 NE7       30.13S FOG
$$

NDZ004>008-012>016-024-026-027-054-271500-
NORTHEAST NORTH DAKOTA

CITY           SKY/WX    TMP DP  RH WIND       PRES   REMARKS
GRAND FORKS    MOSUNNY   66  59  78 N12       30.05F
GRND FRKS AFB  SUNNY     66  59  77 N9        30.07S
DEVILS LAKE    CLOUDY    63  58  83 N10       30.13R
$$

NDZ022-023-025-028>030-036>039-047>053-271500-
SOUTHEAST NORTH DAKOTA

CITY           SKY/WX    TMP DP  RH WIND       PRES   REMARKS
FARGO          CLOUDY    68  60  75 N15       30.01F
JAMESTOWN      PTSUNNY   67  60  78 N7        30.08R
$$





USA.gov is the U.S. government's official web portal to all federal, state and local government web resources and services.